GALAXY 30

Last updated on Tue Mar 22 2022 00:02:42 GMT+0000 (Coordinated Universal Time)

1 46114U 20056C 22080.00267934 .00000037 00000+0 00000+0 0 9990 2 46114 0.0183 166.7931 0001900 210.4651 37.2106 1.00272953 5869

Satellite not in orbit

GALAXY 30